Location: Brantley
(31.5822°N, 86.2569°W)
Time: 08:38:06
(UTC+00:00)

Vanguard 3 - Visible Passes

Search period start: 17 February 2026 00:00
Search period end: 27 February 2026 00:00
Orbit: 507 x 3205 km, 33.3° (Epoch: 16 February)

Date Brightness Start Highest point End Pass type
(mag) Time Alt. Az. Time Alt. Az. Time Alt. Az.
17 Feb 6.8 00:47:00 10° W 00:53:08 72° N 00:54:49 37° ENE visible
18 Feb 7.1 01:37:25 10° WNW 01:41:50 57° WNW 01:41:50 57° WNW visible
19 Feb 7.2 00:14:03 10° W 00:21:17 75° N 00:24:56 16° E visible
19 Feb 9.3 02:27:37 10° W 02:28:51 17° W 02:28:51 17° W visible
20 Feb 6.7 01:04:42 10° WNW 01:10:56 88° S 01:11:58 54° ESE visible
21 Feb 8.0 01:55:07 10° W 01:59:01 37° WSW 01:59:01 37° WSW visible
22 Feb 7.1 00:31:42 10° WNW 00:39:03 86° SSW 00:42:10 21° ESE visible
22 Feb 9.8 02:45:54 10° W 02:46:06 11° W 02:46:06 11° W visible
23 Feb 7.3 01:22:21 10° W 01:28:26 50° SSW 01:29:16 44° S visible
23 Feb 7.6 23:58:24 10° WNW 00:07:04 85° SSW 00:12:02 10° ESE visible
24 Feb 8.9 02:13:19 10° W 02:16:23 20° SW 02:16:23 20° SW visible
25 Feb 7.8 00:49:17 10° W 00:56:30 52° SSW 00:59:36 20° SE visible
26 Feb 8.6 01:40:27 10° W 01:45:25 24° SW 01:46:48 21° SSW visible
